Location: Unspecified
(0.0000°N, 0.0000°E)
Time: 03:54:51
(UTC+00:00)

Transit 2A Rocket - All Passes

Search period start: 20 February 2017 00:00
Search period end: 02 March 2017 00:00
Orbit: 594 x 910 km, 66.7° (Epoch: 19 February)

Date Brightness Start Highest point End Pass type
(mag) Time Alt. Az. Time Alt. Az. Time Alt. Az.
20 Feb - 00:04:56 10° S 00:10:27 47° ESE 00:15:31 10° NE night (unlit)
20 Feb - 01:50:53 10° W 01:52:39 11° WNW 01:54:22 10° NW night (unlit)
20 Feb - 12:34:28 10° NNW 12:39:05 66° WSW 12:44:10 10° SSE daylight
20 Feb - 23:23:35 10° SSE 23:28:03 23° ESE 23:32:13 10° ENE night (unlit)
21 Feb - 01:05:54 10° SW 01:10:25 25° WNW 01:14:37 10° NNW night (unlit)
21 Feb - 11:52:16 10° N 11:56:48 54° ENE 12:01:46 10° SSE daylight
21 Feb - 22:44:13 10° SE 22:45:35 11° ESE 22:46:55 10° E night (unlit)
22 Feb - 00:22:39 10° SSW 00:28:10 51° WNW 00:33:13 10° N night (unlit)
22 Feb - 11:10:49 10° NNE 11:14:34 24° ENE 11:18:34 10° SE daylight
22 Feb - 12:53:42 10° WNW 12:56:56 18° WSW 13:00:19 10° SSW daylight
22 Feb - 23:40:09 10° SSW 23:45:53 77° ESE 23:51:07 10° NNE night (unlit)
23 Feb - 10:31:27 10° ENE 10:32:21 10° ENE 10:33:15 10° E daylight
23 Feb - 12:10:08 10° NW 12:14:30 38° WSW 12:19:17 10° S daylight
23 Feb - 22:58:17 10° S 23:03:31 37° ESE 23:08:21 10° NE night (unlit)
24 Feb - 00:42:45 10° WSW 00:45:45 15° WNW 00:48:39 10° NW night (unlit)
24 Feb - 11:27:29 10° NNW 11:32:10 86° WSW 11:37:20 10° SSE daylight
24 Feb - 22:17:18 10° SSE 22:21:06 18° ESE 22:24:43 10° ENE night (unlit)
24 Feb - 23:58:38 10° SW 00:03:32 31° WNW 00:08:04 10° N night (unlit)
25 Feb - 10:45:30 10° N 10:49:54 41° ENE 10:54:42 10° SE daylight
25 Feb - 12:31:43 10° WSW 12:32:25 10° WSW 12:33:08 10° WSW daylight
25 Feb - 23:15:40 10° SSW 23:21:17 65° WNW 23:26:25 10° N night (unlit)
26 Feb - 10:04:23 10° NNE 10:07:41 19° ENE 10:11:10 10° ESE daylight
26 Feb - 11:46:11 10° WNW 11:49:57 23° WSW 11:54:00 10° SSW daylight
26 Feb - 22:33:22 10° S 22:38:59 60° ESE 22:44:05 10° NNE night (unlit)
27 Feb - 11:02:59 10° NW 11:07:34 50° WSW 11:12:35 10° S daylight
27 Feb - 21:51:44 10° S 21:56:36 29° ESE 22:01:06 10° NE night (unlit)
27 Feb - 23:35:06 10° WSW 23:38:52 19° WNW 23:42:27 10° NNW night (unlit)
28 Feb - 10:20:34 10° NNW 10:25:15 73° ENE 10:30:25 10° SSE daylight
28 Feb - 21:11:16 10° SE 21:14:09 14° ESE 21:16:55 10° E night (unlit)
28 Feb - 22:51:28 10° SW 22:56:39 39° WNW 23:01:25 10° N night (unlit)
01 Mar - 09:38:48 10° N 09:43:00 32° ENE 09:47:33 10° SE daylight
01 Mar - 11:22:58 10° W 11:25:27 14° WSW 11:28:02 10° SW daylight
01 Mar - 22:08:44 10° SSW 22:14:23 83° WNW 22:19:32 10° NNE night (unlit)
